Location: Bessat
(45.8735°N, 1.9924°E)
Time: 07:05:03
(UTC+00:00)

Cosmos 2082 Rocket - Pass Details

Date: 11 May 2021
Orbit: 834 x 853 km, 71.0° (Epoch: 20 June)

Event Time Altitude Azimuth Distance (km) Brightness Sun altitude
Rises 21:36:04 0° 333° (NNW) 3,392 7.0 -19.3°
Reaches altitude 10° 21:38:31 10° 334° (NNW) 2,454 5.8 -19.6°
Maximum altitude 21:44:10 89° 60° (ENE) 842 2.1 -20.1°
Enters shadow 21:46:18 40° 154° (SSE) 1,215 2.5 -20.3°
